Вернуться в каталог

FENGYUN 1C DEB

АктивенPO
NORAD 29904·DEBRIS·🇨🇳 China

Запущен May 10, 1999 с Taiyuan Satellite Launch Center

Loading…

Ближайшие Пролёты (ближайшие 24 часа)

TLE

СвежийSource: Space-Track

Эпоха: Sep 14, 2026, 13:56 UTC

1 29904U 99025HA  26257.58079960  .00000882  00000-0  20722-3 0  9999
2 29904  99.0074 317.7067 0205920 217.5506 141.1153 14.45269593 30412

Отслеживайте FENGYUN 1C DEB в реальном времени с AllMySat

Download on the App Store